sat.trackr.live / text

‹ back to catalog

STARLINK-32328

NORAD 62489 · 2025-003C

PAYLOAD ACTIVE UNKNOWN

§ Identity

Operator
Country
US
Launch date
2025-01-06
Launch site
AFETR
Launch vehicle
Mass (kg)
RCS (m²)

Purposes: comms

External: N2YO · Heavens-Above · Gunter

§ Orbital elements

Epoch: 2026-09-21T08:38:13.130016Z

Period
94.27 min
Inclination
43.0010°
Eccentricity
0.0001216
Mean motion
15.27587621 rev/d
Perigee alt
482.2 km
Apogee alt
483.9 km
Semi-major
6,861.2 km
B*
2.5820e-4
RAAN
264.2000°
Arg perigee
267.0946°
Mean anomaly
92.9766°
Rev number
9,659

§ Raw data

STARLINK-323281 62489U 25003C   26264.35987419  .00006851  00000+0  25820-3 0  99942 62489  43.0010 264.2000 0001216 267.0946  92.9766 15.27587621 96599

JSON: /api/v1/satellites/62489 · /tle

For live sub-satellite position, see the globe view (requires WebGL).

§ Visibility from observer

Set your observer location to see the next 7 days of passes ≥ 10°. The values pass through the URL so the page stays shareable.

No JS? Fill the form by hand. The geolocation button needs JavaScript.